Theta_e
315 315 317 317 318 319 322 323 327 329 332 331 327 323 323 321 321 320 318 319 313 309 306 304 302 300 300 297 295 294 293 293 292 293 294 296 295 297 297 296 293 294 293
313 312 315 317 319 319 321 322 325 327 328 327 324 321 318 313 314 312 310 308 304 303 303 302 300 298 296 294 293 292 292 292 291 293 292 291 293 294 294 293 294 293 293
316 312 313 318 321 322 322 322 323 325 325 325 321 315 313 307 303 302 300 300 302 302 301 299 297 295 294 292 291 291 291 291 290 292 291 288 289 291 291 292 291 292 290
314 312 312 317 321 323 324 323 322 322 322 321 319 318 308 302 299 299 298 299 299 299 298 296 294 293 292 291 290 290 290 290 289 290 289 289 290 289 288 290 290 289 287
315 312 313 318 321 324 325 323 320 319 318 317 316 311 304 302 298 297 297 297 297 296 295 293 292 291 291 290 290 290 289 289 288 288 288 288 288 289 288 287 287 286 286
312 312 314 318 320 322 322 320 318 316 315 315 312 312 308 300 297 296 296 296 295 294 292 292 291 290 290 290 289 289 289 288 288 287 287 286 287 287 286 285 285 285 285
311 312 314 315 313 316 317 316 316 312 312 312 311 310 305 301 299 298 297 295 293 292 291 290 290 290 289 289 289 289 288 288 287 287 286 286 286 286 286 285 285 284 285
311 314 315 315 314 313 314 313 313 311 311 311 309 306 303 301 299 298 296 295 293 291 290 290 289 289 289 289 289 288 288 287 287 286 286 286 286 286 286 285 284 284 284
312 313 314 314 312 311 311 312 310 308 308 307 304 302 301 299 297 296 295 293 291 290 289 289 289 289 289 288 288 287 287 286 286 286 286 286 286 286 286 285 285 284 284
312 313 312 309 309 307 308 309 309 306 304 303 302 299 298 297 296 294 293 291 290 289 289 289 289 288 288 288 287 286 286 286 286 286 286 286 286 286 285 285 285 284 284
313 312 309 305 302 303 303 303 302 302 300 299 298 296 295 295 294 293 291 290 289 289 289 288 288 288 287 286 286 285 285 286 286 286 286 286 286 285 285 285 285 284 284
311 307 304 302 301 299 299 298 297 298 298 297 296 295 294 293 293 291 290 289 289 288 288 288 288 287 286 286 285 285 286 286 286 286 286 285 285 285 285 284 284 284 284
307 304 303 301 298 296 295 295 295 295 295 295 294 293 293 293 291 290 289 288 288 288 288 288 287 286 285 285 284 285 286 286 286 286 285 285 284 284 284 284 284 284 284
308 305 302 299 297 295 293 293 293 294 294 294 293 293 292 291 290 289 288 288 288 288 287 287 286 285 285 284 285 286 287 286 286 285 285 284 283 284 284 284 285 285 284
308 305 301 298 296 293 292 292 293 293 293 293 293 292 291 290 289 288 287 287 287 287 287 286 285 285 284 284 286 287 287 286 286 285 284 284 284 284 285 285 285 284 285
309 305 301 297 295 293 292 291 292 292 293 293 292 290 290 289 288 287 287 287 287 286 286 285 285 284 283 283 286 287 286 286 285 284 284 284 283 283 284 284 284 285 286
309 305 300 298 296 293 292 291 292 292 293 292 290 290 289 288 287 287 287 287 286 286 285 284 284 283 283 284 286 286 286 285 284 284 284 284 284 284 284 284 284 285 285
309 304 300 297 294 293 293 293 293 292 292 291 289 289 288 287 286 287 287 286 286 285 284 284 283 283 283 283 285 285 285 284 284 284 284 284 284 284 284 284 286 284 282
307 303 300 296 293 293 293 293 292 292 291 289 289 288 287 286 286 287 286 286 285 284 284 283 283 283 283 283 284 285 284 284 284 284 284 284 284 283 284 286 284 283 281
305 300 296 294 293 292 293 292 290 291 290 289 288 287 286 286 286 286 286 285 284 283 283 283 283 282 282 282 283 284 284 284 284 284 283 283 283 283 285 283 282 281 280
298 296 295 293 291 292 292 290 290 289 289 288 287 286 286 286 286 285 285 284 283 283 282 282 283 282 282 282 283 283 284 284 284 283 283 283 283 284 283 282 281 281 283
296 293 291 290 290 291 292 289 289 288 288 287 286 286 286 286 285 285 284 283 283 282 282 282 282 282 282 282 282 283 284 284 283 283 283 282 283 282 281 280 281 282 281
292 291 289 288 289 291 292 288 286 287 286 286 286 285 285 285 285 284 283 283 282 281 282 282 282 282 281 281 281 283 283 283 283 283 283 282 281 280 279 279 280 279 277
290 289 289 288 286 290 290 288 287 287 286 285 285 285 285 285 284 283 283 282 282 281 282 282 282 281 281 281 281 282 283 283 283 282 281 280 278 278 278 277 277 277 277
290 289 288 286 285 288 287 287 286 286 285 285 285 284 284 284 283 283 282 282 281 282 283 282 282 281 281 281 282 283 283 283 282 281 279 277 277 277 277 277 277 277 277
287 286 285 284 285 286 285 285 285 286 285 284 284 284 284 283 282 282 282 281 281 281 282 281 281 281 281 281 282 282 282 282 280 279 277 276 276 276 276 276 277 277 277
Wind_Speed
11 15 17 15 14 15 13 12 17 24 30 32 32 29 31 29 27 24 21 17 15 14 11 10 8 6 8 11 11 10 12 15 21 12 17 7 5 4 8 11 18 10 15
7 8 11 14 17 18 17 16 19 26 31 32 30 32 35 29 28 24 21 18 16 14 12 10 9 8 9 10 12 14 11 11 19 11 4 4 6 6 20 19 10 16 18
12 8 8 19 17 19 21 22 23 26 30 32 33 34 30 29 27 25 23 20 16 14 11 10 9 9 10 11 12 13 14 12 13 11 8 3 2 6 6 13 16 11 26
9 8 9 11 21 21 19 22 25 27 29 33 38 43 33 27 21 27 24 21 15 14 11 10 9 10 10 10 11 11 12 11 11 5 8 3 7 3 5 4 19 9 29
16 13 12 20 25 22 22 23 25 27 29 33 39 36 29 22 32 29 24 21 17 13 11 10 10 10 9 9 9 10 11 10 7 6 5 5 10 7 4 7 9 26 25
13 12 12 19 23 22 24 26 28 28 31 33 34 34 34 37 33 28 24 20 16 13 11 10 9 9 8 8 9 9 9 8 8 7 6 6 2 4 4 4 12 15 19
9 10 12 12 20 26 29 30 31 30 30 31 30 31 34 34 32 27 23 19 16 13 11 9 8 8 8 7 7 8 8 8 8 8 9 6 6 10 13 12 14 10 23
7 11 14 13 22 26 30 29 32 31 29 28 28 29 30 30 26 22 19 16 14 12 10 8 7 7 6 6 8 8 9 9 10 9 10 8 13 13 13 14 15 12 6
9 11 11 17 22 25 27 32 33 31 29 29 30 31 29 27 25 21 18 16 13 11 9 6 6 5 5 7 9 10 10 11 10 12 11 14 16 14 15 16 17 11 9
8 9 11 12 18 22 29 32 34 34 32 32 32 31 28 25 23 20 18 14 13 10 7 6 5 5 6 7 9 10 10 10 13 15 14 17 18 17 19 20 20 21 19
14 12 11 16 21 25 28 31 34 37 35 33 32 30 27 24 21 19 16 13 11 8 6 5 4 5 7 9 11 11 11 15 16 16 17 19 20 21 22 22 25 25 23
11 12 13 17 22 24 26 30 33 37 35 33 31 29 26 22 20 17 14 11 9 7 5 4 5 7 9 11 12 13 14 16 18 19 19 21 21 21 22 24 26 26 27
11 12 14 13 16 21 24 28 32 36 35 33 31 27 24 21 18 16 13 10 7 6 4 5 7 9 11 13 13 14 15 17 18 18 18 21 23 25 24 24 25 26 23
10 11 12 12 17 20 23 27 31 35 34 31 29 26 22 19 16 14 11 8 6 4 4 6 8 11 13 14 14 15 17 17 18 18 22 23 22 22 25 23 23 22 27
11 11 12 12 16 20 23 27 33 34 32 30 26 23 20 18 15 12 10 7 5 5 5 7 9 12 14 15 15 16 17 19 19 22 23 23 21 21 23 26 27 28 27
12 12 12 13 12 21 23 27 31 32 30 28 25 22 20 16 13 11 8 5 5 5 6 9 12 14 14 16 15 17 19 20 21 24 25 26 23 23 25 27 29 30 33
15 14 14 14 19 22 28 28 32 31 28 26 23 20 18 15 12 9 6 4 5 7 9 10 12 15 16 15 16 17 19 21 23 24 27 27 25 26 29 31 30 32 25
13 13 12 16 20 26 28 33 32 29 26 24 22 18 16 13 10 7 5 4 6 8 10 12 14 16 17 15 17 19 20 22 23 26 26 25 28 28 30 33 26 30 27
12 12 21 24 27 30 33 34 30 28 25 23 20 17 14 12 9 6 5 6 7 8 12 14 16 17 18 18 19 21 22 24 26 26 22 23 26 30 33 31 28 28 27
17 20 24 26 28 28 34 32 29 27 24 21 18 15 12 10 7 5 4 5 7 10 13 15 15 16 17 19 19 20 22 22 24 21 23 21 27 32 31 32 28 24 31
21 24 23 23 26 33 33 28 28 25 23 20 18 14 11 9 6 4 4 7 9 12 13 16 18 18 19 20 19 20 22 24 24 24 23 24 29 32 33 31 26 26 31
17 21 23 22 26 32 33 27 25 23 22 19 17 13 10 7 4 4 6 8 11 13 16 18 21 20 21 21 19 20 22 25 27 25 24 28 32 32 30 26 25 28 27
17 20 24 24 25 28 32 28 25 24 21 18 15 11 8 5 5 5 8 11 12 14 16 18 18 22 21 23 22 21 23 26 27 25 29 30 30 28 25 23 25 24 23
15 22 25 22 21 25 26 29 26 22 19 17 13 10 6 4 4 6 9 12 14 15 17 17 17 22 23 20 24 23 26 24 22 26 24 26 26 22 23 23 23 23 22
19 21 23 22 24 28 28 24 22 19 18 15 11 7 4 4 6 8 10 12 13 12 18 19 20 20 18 20 24 25 26 26 28 29 24 23 21 22 22 23 24 24 24
21 23 24 28 28 29 25 21 17 15 15 13 8 5 4 5 8 11 13 11 11 14 14 15 16 19 19 22 24 24 25 27 25 22 19 20 20 21 22 24 26 26 26
Wind_Direction
254 257 262 248 216 206 194 184 185 190 185 172 162 158 154 154 149 149 149 148 145 138 130 119 101 69 40 37 33 31 22 17 9 1 346 356 357 265 279 324 324 325 339
238 234 227 210 204 203 191 182 179 179 179 175 166 159 152 149 146 144 142 142 138 131 122 111 91 65 53 49 43 38 33 27 22 11 351 2 340 10 317 324 317 320 321
237 223 198 204 203 199 189 185 179 178 178 175 165 153 147 140 136 138 135 132 132 122 114 98 80 69 57 55 48 42 40 27 26 39 40 357 310 328 302 303 304 318 312
222 212 193 185 201 199 189 185 180 179 178 174 166 159 152 148 152 144 136 128 125 116 105 92 81 70 65 61 50 41 39 35 31 25 5 345 291 312 319 307 306 304 315
211 200 192 195 196 188 181 181 176 177 175 173 167 160 150 153 149 140 132 126 118 109 98 88 78 73 67 59 48 38 31 26 19 7 345 334 314 286 260 303 307 312 312
205 197 187 168 171 176 173 172 170 171 172 173 170 170 161 150 143 140 130 123 116 107 97 88 81 76 67 51 38 25 13 10 1 353 342 324 295 309 296 287 306 299 313
189 162 157 156 154 166 169 170 170 164 169 173 171 168 160 154 146 142 135 130 120 109 98 91 85 72 56 39 22 11 2 354 345 337 330 317 318 309 306 301 305 302 310
179 177 171 164 162 163 165 164 164 160 163 166 165 161 154 147 140 138 133 126 120 113 104 93 79 65 46 23 7 358 350 339 331 327 320 308 315 305 308 306 308 313 293
178 175 168 162 159 158 160 161 158 156 158 157 152 148 147 143 137 132 129 124 118 114 108 95 76 52 24 2 353 345 338 330 333 330 321 308 312 297 300 302 306 289 310
161 156 154 148 146 147 151 157 159 153 151 149 147 144 142 138 133 130 126 124 118 113 106 90 59 29 5 350 343 337 336 334 333 330 321 312 311 298 296 297 296 292 274
171 159 147 135 129 133 142 146 151 147 147 147 144 139 135 133 130 127 125 122 116 112 104 75 36 5 352 346 343 341 340 332 330 328 323 317 316 309 303 298 297 290 274
138 136 133 129 133 131 136 141 144 145 147 145 142 136 134 133 130 125 123 119 117 110 85 47 9 353 347 346 344 340 335 330 327 325 322 320 321 313 309 305 300 286 278
121 128 131 134 132 130 132 139 144 145 145 144 140 136 133 133 128 125 124 123 116 99 60 17 359 353 348 343 342 339 333 327 325 325 325 324 320 313 311 306 297 289 287
139 140 131 130 128 131 132 138 139 147 146 144 140 137 135 133 132 129 126 122 104 75 36 9 358 348 344 342 341 336 328 326 326 327 325 323 318 312 310 308 304 308 301
149 148 140 131 128 126 131 138 143 147 148 143 141 137 137 136 133 129 123 106 87 50 20 360 352 347 342 341 332 326 325 326 326 325 323 322 317 310 311 311 315 308 302
154 142 138 131 134 140 139 140 145 149 150 145 142 141 138 136 133 127 117 104 66 32 10 357 347 341 338 332 327 325 323 323 322 320 321 324 320 314 312 311 310 308 305
155 152 151 146 147 147 145 143 149 152 150 146 144 141 140 136 130 124 111 79 40 14 1 349 339 334 334 332 325 324 319 320 319 318 320 319 316 317 317 310 304 299 310
152 144 142 137 140 142 143 150 153 153 150 146 144 144 142 135 129 118 94 56 20 2 347 341 338 332 333 332 328 323 318 318 320 322 319 313 318 320 313 311 312 318 315
148 145 149 144 141 146 151 151 153 153 150 147 145 145 144 134 127 112 71 28 360 348 344 341 335 334 334 336 330 326 323 323 323 320 317 315 317 315 316 321 319 315 312
136 138 138 138 137 145 153 148 149 153 152 150 144 142 138 132 122 90 46 7 351 347 338 334 338 337 333 337 329 327 326 320 315 320 318 316 317 318 321 324 322 319 310
127 130 134 138 141 149 152 142 151 152 150 145 139 135 131 121 104 73 30 0 348 340 340 337 339 338 339 335 329 330 328 323 320 323 319 315 318 322 323 321 322 310 315
120 124 120 121 138 150 151 140 143 146 144 140 135 129 123 114 87 40 14 354 347 344 345 340 336 338 338 340 331 330 329 324 324 318 317 315 322 322 322 321 319 320 322
115 120 122 119 134 148 151 135 140 143 140 136 131 129 123 94 51 16 358 355 352 346 340 337 324 326 331 336 336 329 325 323 319 319 317 320 322 323 321 323 322 322 318
113 120 118 115 113 140 141 138 142 142 140 134 129 122 103 72 30 6 355 348 346 339 335 328 320 324 328 330 331 326 324 321 322 322 324 322 323 323 320 321 322 320 318
110 115 115 111 115 130 130 135 139 144 135 128 121 114 91 39 10 356 349 340 339 331 326 323 323 323 321 322 324 327 322 329 327 327 323 325 326 322 322 322 319 319 317
108 103 106 114 122 126 127 132 137 140 133 125 116 92 55 20 0 346 337 343 333 325 324 324 324 322 317 323 326 325 329 328 328 327 324 320 319 317 318 316 315 315 315